Date,TemperatureHighF,TemperatureAvgF,TemperatureLowF,DewpointHighF,DewpointAvgF,DewpointLowF,HumidityHigh,HumidityAvg,HumidityLow,PressureMaxIn,PressureMinIn,WindSpeedMaxMPH,WindSpeedAvgMPH,GustSpeedMaxMPH,PrecipitationSumIn
2013-1-1,17.5,9.0,2.8,10.0,2.5,-99.9,88,78,60,30.66,30.32,11,-10,11,0.01
2013-1-2,21.5,10.3,1.7,9.0,3.4,-5.0,86,74,57,30.70,30.56,3,0,9,0.00
2013-1-3,19.8,6.0,-3.5,4.0,-3.2,-9.0,79,67,47,30.84,30.70,6,1,7,0.00
2013-1-4,28.0,11.5,1.7,8.0,1.1,-5.0,77,64,43,30.81,30.55,4,1,5,0.00
2013-1-5,31.0,14.1,3.5,10.0,3.0,-2.0,79,63,38,30.75,30.61,5,1,7,0.01
2013-1-6,32.0,17.2,6.7,10.0,4.0,-2.0,69,57,38,30.71,30.38,6,1,8,0.00
2013-1-7,36.2,21.2,12.1,13.0,6.3,1.0,66,53,38,30.39,30.22,5,1,8,0.00
2013-1-8,34.4,21.6,13.1,14.0,8.1,2.0,72,57,43,30.63,30.25,7,1,10,0.00
2013-1-9,37.3,23.7,13.1,18.0,12.0,7.0,78,62,45,30.65,30.28,7,1,8,0.00
2013-1-10,38.2,26.6,17.1,25.0,14.1,8.0,90,61,32,30.27,29.58,25,5,37,0.00
2013-1-11,33.5,16.1,5.8,22.0,9.4,0.0,91,75,54,30.05,29.39,27,9,39,0.00
2013-1-12,12.9,4.5,-3.6,2.0,-3.4,-10.0,82,70,51,30.34,30.06,7,1,10,0.00
2013-1-13,10.7,1.9,-3.5,2.0,-3.5,-8.0,83,78,63,30.46,30.32,7,0,11,0.00
2013-1-14,8.7,-1.7,-9.7,-3.0,-8.8,-16.0,84,73,55,30.73,30.46,8,1,10,0.00
2013-1-15,8.0,-1.6,-11.7,-4.0,-10.0,-18.0,86,68,54,31.06,30.73,5,0,7,0.00
2013-1-16,28.7,11.6,-0.1,9.0,1.8,-7.0,79,66,44,31.07,30.86,4,0,5,0.01
2013-1-17,35.4,18.9,9.1,16.0,10.1,4.0,84,70,44,30.90,30.69,5,1,6,0.00
2013-1-18,32.9,17.2,9.9,15.0,9.8,6.0,83,74,49,30.70,30.57,4,1,5,0.00
2013-1-19,39.1,25.5,11.0,14.0,8.8,3.0,74,51,33,30.69,30.57,4,0,10,0.00
2013-1-20,40.3,23.6,12.0,12.0,6.3,1.0,65,49,28,30.60,30.44,5,1,6,0.00
2013-1-21,41.1,24.5,12.4,13.0,6.3,1.0,62,47,32,30.60,30.46,5,1,6,0.00
2013-1-22,42.2,25.1,13.1,12.0,4.4,-2.0,53,42,26,30.58,30.48,5,1,7,0.00
2013-1-23,41.0,27.7,15.5,14.0,4.3,-2.0,47,37,23,30.61,30.45,4,0,5,0.00
2013-1-24,40.4,29.9,22.0,29.0,17.9,7.0,94,64,34,30.47,30.32,12,1,15,0.00
2013-1-25,38.0,32.3,29.3,36.0,30.7,28.0,96,94,84,30.40,30.24,2,0,5,0.09
2013-1-26,38.8,32.5,28.4,33.0,30.2,27.0,96,91,73,30.23,29.81,4,0,7,0.01
2013-1-27,40.6,34.0,29.3,34.0,28.3,23.0,96,81,59,29.93,29.75,20,3,30,0.30
2013-1-28,35.0,25.2,13.7,29.0,23.3,12.0,95,92,67,29.86,29.64,16,4,24,0.01
2013-1-29,16.5,10.9,3.7,14.0,7.9,1.0,92,87,84,30.33,29.86,10,2,13,0.00
2013-1-30,17.6,13.2,7.2,16.0,10.7,5.0,92,89,87,30.50,30.33,6,0,10,0.00
2013-1-31,31.7,23.2,17.6,28.0,20.2,16.0,92,88,79,30.59,30.44,9,1,14,0.11
2013-2-1,31.2,25.6,21.2,24.0,20.8,17.0,90,82,72,30.51,30.36,17,2,19,0.01
2013-2-2,37.7,23.7,11.0,20.0,15.3,7.0,87,72,47,30.68,30.51,5,1,6,0.05
2013-2-3,35.5,24.1,16.2,19.0,13.8,10.0,83,66,43,30.55,30.24,11,1,20,0.01
2013-2-4,36.0,23.3,10.3,20.0,12.8,6.0,85,66,45,30.37,30.27,5,1,15,0.00
2013-2-5,43.6,26.5,13.0,20.0,14.3,7.0,78,62,38,30.39,30.12,4,1,7,0.00
2013-2-6,37.8,27.9,20.1,28.0,21.1,14.0,93,76,56,30.21,30.00,7,1,13,0.00
2013-2-7,39.2,24.6,14.1,20.0,13.4,5.0,91,66,26,30.37,30.20,6,2,8,0.01
2013-2-8,40.7,27.8,14.1,25.0,15.0,5.0,79,60,39,30.21,29.77,20,3,27,0.00
2013-2-9,30.5,22.9,14.3,23.0,18.3,9.0,93,83,69,29.83,29.58,10,2,18,0.11
2013-2-10,28.4,17.6,11.0,13.0,9.7,6.0,85,72,51,30.14,29.84,5,1,8,0.01
2013-2-11,24.1,15.2,8.2,15.0,9.6,4.0,86,79,60,30.36,30.11,13,3,18,0.00
2013-2-12,26.4,13.8,3.5,8.0,4.8,-2.0,92,68,45,30.55,30.37,7,0,11,0.01
2013-2-13,31.2,21.7,14.4,18.0,13.3,9.0,82,70,57,30.56,30.35,4,0,9,0.00
2013-2-14,29.7,23.2,19.1,21.0,15.6,11.0,96,73,58,30.44,30.30,15,3,20,0.00
2013-2-15,28.8,21.3,15.3,16.0,12.1,7.0,83,68,53,30.65,30.44,16,3,21,0.00
2013-2-16,37.5,22.9,9.2,17.0,10.4,4.0,79,60,42,30.68,30.35,8,1,11,0.00
2013-2-17,40.8,27.1,16.4,21.0,11.4,5.0,87,55,29,30.34,29.80,23,4,25,0.00
2013-2-18,28.2,18.3,7.8,16.0,6.9,1.0,87,62,42,30.33,29.95,10,2,14,0.00
2013-2-19,39.3,21.6,4.5,11.0,3.4,-4.0,69,48,25,30.34,29.91,5,1,6,0.00
2013-2-20,36.6,26.1,18.1,23.0,12.3,3.0,93,58,39,29.91,29.56,11,2,17,0.00
2013-2-21,27.2,22.6,18.5,21.0,16.9,12.0,92,79,63,30.02,29.66,15,4,18,0.03
2013-2-22,25.6,17.2,8.9,16.0,10.0,2.0,90,75,49,30.28,30.02,14,3,17,0.06
2013-2-23,31.4,16.5,4.1,19.0,10.2,-1.0,92,77,54,30.28,29.93,11,1,16,0.00
2013-2-24,22.2,16.6,10.9,17.0,10.2,-99.9,91,79,66,30.32,29.87,24,-4,28,0.06
2013-2-25,29.1,16.1,2.4,13.0,5.8,-2.0,82,65,43,30.47,30.19,6,1,9,0.01
2013-2-26,21.2,16.7,9.4,15.0,10.9,5.0,89,78,63,30.44,30.07,13,3,22,0.02
2013-2-27,27.1,14.2,2.8,10.0,3.8,-2.0,84,65,37,30.65,30.44,13,2,14,0.02
2013-2-28,30.3,16.1,1.8,18.0,3.2,-99.9,89,62,38,30.76,30.65,12,-19,15,0.00
2013-3-1,36.1,26.4,18.6,25.0,20.6,16.0,91,79,63,30.70,30.60,10,1,13,0.04
2013-3-2,47.6,33.5,20.9,25.0,21.4,17.0,84,63,40,30.64,30.22,4,0,7,0.00
2013-3-3,42.3,34.1,28.4,30.0,24.3,19.0,95,69,48,30.22,29.82,17,3,30,0.00
2013-3-4,33.1,24.4,10.4,32.0,13.3,-99.9,96,75,51,30.36,29.77,23,-47,28,0.19
2013-3-5,43.6,21.3,4.4,17.0,7.1,-1.0,79,57,29,30.64,30.38,5,1,8,0.07
2013-3-6,47.5,35.5,19.4,23.0,15.8,4.0,65,46,34,30.42,29.96,21,5,29,0.07
2013-3-7,49.2,42.1,33.8,20.0,16.2,12.0,46,36,26,29.96,29.82,17,6,27,0.00
2013-3-8,47.9,36.4,29.3,29.0,20.4,12.0,93,56,31,29.86,29.62,14,2,19,0.00
2013-3-9,29.6,26.2,17.7,28.0,23.6,13.0,94,90,81,30.20,29.59,18,5,25,0.12
2013-3-10,33.8,21.6,10.0,22.0,14.5,6.0,84,75,60,30.47,30.20,7,1,10,0.16
2013-3-11,40.2,28.1,16.1,26.0,18.1,12.0,84,68,47,30.47,30.21,11,2,18,0.16
2013-3-12,43.5,35.0,28.6,26.0,23.9,22.0,80,65,46,30.34,30.25,14,2,18,0.00
2013-3-13,50.2,36.8,24.0,27.0,22.0,18.0,78,57,34,30.45,30.34,8,1,12,0.00
2013-3-14,55.2,40.3,26.2,26.0,21.5,16.0,67,49,30,30.45,30.27,7,1,10,0.00
2013-3-15,56.6,42.8,32.0,27.0,23.8,19.0,62,49,30,30.27,29.92,10,2,18,0.00
2013-3-16,43.6,38.8,31.1,33.0,28.9,23.0,86,68,54,29.93,29.77,11,3,20,0.00
2013-3-17,39.1,32.2,28.3,33.0,22.0,-99.9,94,71,42,29.94,29.69,23,-4,34,0.10
2013-3-18,37.6,30.0,22.7,17.0,12.7,8.0,60,49,37,30.12,29.95,23,9,30,0.10
2013-3-19,41.3,32.7,23.9,14.0,6.7,-1.0,60,36,19,30.32,30.10,12,3,21,0.00
2013-3-20,42.7,30.2,17.0,29.0,11.8,-2.0,84,49,31,30.32,29.96,19,2,28,0.00
2013-3-21,36.1,31.2,25.1,33.0,26.3,17.0,95,83,65,29.97,29.68,15,2,28,0.28
2013-3-22,37.4,25.4,16.5,18.0,14.4,12.0,86,65,39,29.95,29.73,21,4,31,0.28
2013-3-23,23.9,17.1,7.6,14.0,9.1,0.0,83,71,50,30.36,29.88,15,5,22,0.00
2013-3-24,23.3,11.8,2.8,12.0,2.0,-4.0,83,66,45,30.53,30.36,23,4,23,0.00
2013-3-25,33.8,16.9,-0.9,6.0,0.4,-7.0,75,52,27,30.62,30.46,5,1,13,0.00
2013-3-26,47.9,30.0,13.6,23.0,11.5,-99.9,68,49,34,30.49,30.05,13,-10,16,0.00
2013-3-27,51.1,40.5,28.3,27.0,22.9,18.0,74,52,31,30.06,29.94,12,2,15,0.00
2013-3-28,54.7,41.4,28.4,27.0,22.0,16.0,61,47,32,30.09,30.00,17,1,26,0.00
2013-3-29,54.5,44.0,36.1,32.0,26.5,22.0,79,52,36,30.12,30.01,16,2,26,0.00
2013-3-30,54.3,41.7,30.2,32.0,27.3,24.0,83,60,34,30.15,30.02,21,3,27,0.00
2013-3-31,57.4,42.2,26.7,30.0,23.7,19.0,77,51,30,30.13,29.95,12,3,16,0.00
2013-4-1,55.3,42.3,33.0,35.0,26.0,19.0,77,54,31,29.98,29.74,23,3,24,0.00
2013-4-2,47.1,36.6,29.7,34.0,30.6,27.0,93,80,50,30.01,29.82,16,5,22,0.08
2013-4-3,52.9,39.4,30.3,32.0,27.3,21.0,91,65,37,30.16,30.01,11,2,16,0.08
2013-4-4,59.8,44.9,28.8,31.0,23.9,21.0,73,46,27,30.22,29.97,16,3,28,0.00
2013-4-5,58.0,45.7,36.8,35.0,26.8,19.0,90,51,30,29.98,29.67,22,6,37,0.02
2013-4-6,55.3,42.3,30.7,36.0,29.6,22.0,92,66,30,29.94,29.84,19,4,26,0.02
2013-4-7,49.2,42.0,30.5,37.0,28.3,20.0,90,62,37,29.88,29.65,17,3,28,0.02
2013-4-8,54.0,42.2,34.0,33.0,26.7,20.0,93,57,29,29.65,29.24,19,3,29,0.04
2013-4-9,34.4,24.2,12.7,32.0,22.0,10.0,94,91,88,30.08,29.33,21,6,23,0.04
2013-4-10,30.8,19.1,6.5,24.0,13.6,4.0,89,80,58,30.34,30.08,14,3,20,0.03
2013-4-11,45.4,31.1,22.8,32.0,24.1,16.0,89,76,53,30.26,29.96,15,2,20,0.02
2013-4-12,51.4,38.3,29.7,36.0,25.6,16.0,95,66,26,29.98,29.87,13,2,29,0.07
2013-4-13,52.3,40.6,29.0,35.0,23.4,18.0,93,54,28,29.90,29.39,42,10,44,0.10
2013-4-14,38.2,30.9,22.5,30.0,21.7,16.0,95,71,44,29.74,29.50,19,4,30,0.33
2013-4-15,33.5,29.7,26.7,30.0,26.9,22.0,95,90,65,29.80,29.57,11,2,27,0.08
2013-4-16,49.2,34.0,23.7,32.0,26.4,22.0,94,76,42,29.81,29.59,31,7,49,0.15
2013-4-17,26.9,21.5,15.3,22.0,16.9,9.0,93,83,70,30.22,29.71,16,5,22,0.15
2013-4-18,27.4,18.6,11.1,17.0,9.9,7.0,85,70,51,30.57,30.23,16,5,21,0.00
2013-4-19,41.0,26.2,12.5,27.0,16.4,7.0,92,68,46,30.57,30.22,14,2,19,0.01
2013-4-20,45.8,33.8,27.5,34.0,29.7,26.0,95,86,61,30.22,30.01,13,2,25,0.13
2013-4-21,51.2,39.3,29.8,35.0,27.6,17.0,95,68,27,30.20,29.96,18,3,24,0.07
2013-4-22,49.8,41.7,29.8,33.0,26.4,20.0,91,56,36,29.96,29.73,21,7,30,0.01
2013-4-23,37.4,29.7,22.4,28.0,17.6,8.0,93,64,34,30.25,29.85,20,7,25,0.03
2013-4-24,47.2,31.7,18.8,17.0,12.6,7.0,74,49,25,30.34,30.23,14,3,22,0.03
2013-4-25,58.6,41.2,25.0,23.0,16.7,10.0,60,39,23,30.28,29.91,15,3,20,0.00
2013-4-26,60.8,45.1,30.1,22.0,17.9,15.0,57,36,19,30.17,30.00,15,3,26,0.00
2013-4-27,62.3,46.9,30.0,25.0,20.3,16.0,57,37,21,30.22,30.01,17,4,23,0.00
2013-4-28,67.4,51.0,32.7,30.0,23.6,18.0,56,36,22,30.05,29.77,14,3,23,0.00
2013-4-29,68.3,55.8,39.7,31.0,27.1,22.0,58,35,21,29.82,29.51,21,6,32,0.00
2013-4-30,64.1,54.8,39.2,34.0,27.9,23.0,81,37,26,29.56,29.36,35,6,37,0.00
2013-5-1,39.8,31.5,26.7,33.0,19.5,-99.9,95,71,43,30.42,29.57,13,-42,21,0.42
2013-5-2,45.0,31.9,19.0,23.0,17.5,13.0,80,58,35,30.70,30.43,13,2,19,0.01
2013-5-3,59.0,40.5,22.4,24.0,17.9,13.0,70,45,19,30.53,29.99,10,1,16,0.01
2013-5-4,61.5,46.9,31.0,29.0,22.7,18.0,61,41,21,29.99,29.77,14,3,29,0.00
2013-5-5,60.5,49.3,37.9,34.0,27.2,21.0,64,45,22,29.90,29.79,14,4,25,0.00
2013-5-6,58.4,45.3,36.2,41.0,33.9,26.0,94,67,40,29.91,29.71,15,3,20,0.36
2013-5-7,50.6,41.5,36.5,41.0,36.8,35.0,95,84,58,29.99,29.91,14,2,23,0.06
2013-5-8,43.5,36.5,32.9,39.0,34.4,31.0,95,92,83,30.08,29.91,16,2,22,0.28
2013-5-9,53.7,40.7,33.0,40.0,35.2,32.0,100,82,53,30.14,30.07,14,3,20,0.08
2013-5-10,58.9,45.3,31.6,38.0,31.7,28.0,88,62,37,30.21,30.10,28,4,34,0.08
2013-5-11,64.0,49.3,34.2,36.0,30.0,26.0,72,50,28,30.30,30.10,11,2,20,0.00
2013-5-12,68.3,54.0,40.6,38.0,33.0,29.0,67,47,28,30.18,29.99,9,2,16,0.00
2013-5-13,74.0,58.0,42.6,41.0,35.3,30.0,64,45,25,30.12,29.87,11,2,19,0.00
2013-5-14,75.3,56.3,43.6,43.0,37.1,32.0,70,51,27,29.91,29.70,26,3,36,0.00
2013-5-15,68.3,53.2,42.2,44.0,39.3,36.0,83,61,38,29.84,29.69,17,3,24,0.00
2013-5-16,67.8,54.7,37.9,44.0,37.3,31.0,90,56,31,29.82,29.64,19,2,26,0.00
2013-5-17,69.9,58.3,45.2,32.0,26.5,21.0,53,31,17,29.72,29.59,32,7,36,0.00
2013-5-18,61.4,47.9,37.9,40.0,32.3,23.0,92,58,31,29.82,29.62,20,4,39,0.10
2013-5-19,49.1,40.7,33.3,39.0,34.4,31.0,92,79,57,29.93,29.80,11,2,18,0.04
2013-5-20,50.0,42.3,36.9,42.0,35.3,31.0,89,77,54,30.04,29.91,14,3,19,0.09
2013-5-21,61.4,46.8,34.4,38.0,32.6,29.0,85,61,35,30.06,29.82,18,3,21,0.09
2013-5-22,70.6,55.7,37.2,40.0,30.9,24.0,74,44,20,29.82,29.60,24,5,29,0.00
2013-5-23,74.8,63.0,48.2,36.0,27.8,20.0,48,28,16,29.66,29.50,30,8,40,0.00
2013-5-24,70.8,61.8,51.9,31.0,24.6,19.0,35,24,19,29.71,29.57,28,11,40,0.00
2013-5-25,72.7,59.3,42.7,29.0,24.0,21.0,43,27,17,29.80,29.66,23,6,31,0.00
2013-5-26,73.8,60.2,44.3,32.0,25.4,19.0,47,28,16,29.75,29.59,21,6,36,0.00
2013-5-27,68.5,57.2,43.1,32.0,24.4,17.0,39,29,22,29.68,29.53,14,2,20,0.00
2013-5-28,68.8,54.5,39.8,38.0,28.8,23.0,58,39,23,29.59,29.40,28,6,32,0.00
2013-5-29,52.7,42.7,35.5,44.0,36.9,33.0,94,81,57,29.75,29.48,15,4,20,0.24
2013-5-30,57.9,47.5,36.6,35.0,30.1,24.0,84,54,33,29.85,29.73,18,6,30,0.24
2013-5-31,59.9,49.7,36.2,29.0,23.9,17.0,64,38,22,29.99,29.81,20,5,27,0.00
2013-6-1,66.6,50.6,32.8,34.0,27.6,20.0,65,43,26,30.12,29.95,16,2,18,0.00
2013-6-2,76.1,56.9,36.4,38.0,30.9,26.0,68,41,22,30.01,29.66,16,3,24,0.00
2013-6-3,75.8,62.2,46.1,40.0,31.8,26.0,47,33,21,29.67,29.52,21,4,38,0.00
2013-6-4,75.8,59.8,42.8,40.0,34.2,25.0,60,41,22,29.75,29.61,22,4,29,0.00
2013-6-5,71.1,58.8,43.4,41.0,34.0,29.0,67,42,24,29.83,29.72,17,4,23,0.00
2013-6-6,74.9,57.8,39.3,40.0,33.8,27.0,64,43,24,29.90,29.75,16,3,37,0.00
2013-6-7,75.6,58.2,45.0,44.0,37.1,33.0,68,48,26,29.83,29.64,12,2,24,0.00
2013-6-8,76.2,61.5,46.9,45.0,37.9,32.0,63,44,25,29.74,29.63,19,5,23,0.00
2013-6-9,81.4,64.6,45.2,46.0,36.9,29.0,57,37,23,29.84,29.68,11,2,17,0.00
2013-6-10,85.4,68.5,49.2,47.0,36.7,29.0,55,34,17,29.74,29.54,20,4,30,0.00
2013-6-11,79.0,68.6,55.3,36.0,29.7,25.0,35,24,17,29.73,29.54,28,9,39,0.00
2013-6-12,82.2,64.7,45.9,43.0,32.7,26.0,50,32,18,29.86,29.74,17,5,30,0.00
2013-6-13,79.6,66.4,50.8,44.0,34.7,26.0,52,32,21,29.80,29.60,30,6,37,0.00
2013-6-14,79.3,66.9,52.4,45.0,34.3,22.0,53,32,18,29.68,29.54,14,3,27,0.00
2013-6-15,76.7,60.0,41.8,37.0,30.3,20.0,48,34,21,29.86,29.65,27,5,34,0.00
2013-6-16,69.7,57.2,47.4,47.0,39.2,32.0,68,52,38,29.95,29.84,13,3,22,0.00
2013-6-17,75.2,59.8,43.1,47.0,39.3,35.0,75,50,26,29.98,29.79,12,2,20,0.00
2013-6-18,78.0,63.3,46.1,47.0,35.4,20.0,66,39,18,29.84,29.56,15,3,32,0.00
2013-6-19,79.8,66.0,47.3,40.0,24.9,18.0,45,23,12,29.61,29.44,28,8,37,0.00
2013-6-20,78.4,64.5,45.4,36.0,26.2,17.0,42,24,16,29.63,29.51,25,6,37,0.00
2013-6-21,78.7,64.2,46.3,34.0,26.7,20.0,40,25,15,29.68,29.55,21,6,27,0.00
2013-6-22,77.3,63.8,51.9,36.0,27.5,21.0,38,26,18,29.65,29.53,26,7,33,0.00
2013-6-23,76.6,60.8,41.6,38.0,30.5,21.0,53,33,21,29.75,29.55,17,3,22,0.00
2013-6-24,77.1,63.4,47.2,32.0,27.3,24.0,44,27,16,29.66,29.56,24,9,33,0.00
2013-6-25,77.3,65.6,54.5,42.0,34.7,26.0,45,32,25,29.76,29.60,12,4,21,0.00
2013-6-26,84.6,67.0,46.7,46.0,38.7,33.0,59,38,21,29.89,29.76,14,2,19,0.00
2013-6-27,89.3,70.5,52.9,45.0,38.7,32.0,51,33,16,29.97,29.80,7,2,33,0.00
2013-6-28,91.6,71.0,55.5,50.0,41.1,33.0,49,35,19,29.90,29.71,11,2,25,0.00
2013-6-29,86.2,68.4,56.3,52.0,44.1,38.0,57,43,26,29.83,29.66,17,2,24,0.00
2013-6-30,82.7,66.5,51.2,50.0,45.0,40.0,67,48,30,29.85,29.70,11,1,15,0.01
2013-7-1,85.1,67.1,50.4,47.0,42.2,36.0,69,44,20,29.93,29.75,14,4,20,0.00
2013-7-2,82.6,66.5,52.2,47.0,42.5,35.0,63,43,25,29.87,29.70,13,3,25,0.00
2013-7-3,83.4,62.8,49.2,45.0,40.4,35.0,61,46,22,29.82,29.65,12,3,25,0.00
2013-7-4,82.0,65.7,48.3,50.0,44.2,39.0,74,48,22,29.80,29.60,11,1,16,0.00
2013-7-5,82.0,67.8,53.8,54.0,49.7,42.0,84,55,32,29.69,29.49,13,2,18,0.01
2013-7-6,80.8,64.8,52.6,53.0,48.9,44.0,83,60,29,29.70,29.56,9,1,20,0.01
2013-7-7,84.3,68.4,53.7,50.0,46.5,44.0,71,48,26,29.82,29.59,24,2,24,0.01
2013-7-8,83.6,63.9,47.7,54.0,47.7,41.0,93,62,24,29.87,29.77,24,2,24,0.06
2013-7-9,85.0,69.7,54.6,48.0,42.6,39.0,62,40,22,29.92,29.77,12,2,17,0.00
2013-7-10,88.6,73.0,56.7,50.0,41.9,38.0,55,35,18,29.82,29.59,13,2,24,0.00
2013-7-11,90.0,70.1,56.6,53.0,45.1,37.0,73,44,18,29.70,29.48,17,2,28,0.03
2013-7-12,81.3,63.0,53.0,57.0,52.4,48.0,92,71,39,29.82,29.61,15,2,19,0.38
2013-7-13,80.1,64.3,53.7,58.0,54.1,50.0,92,72,42,29.87,29.75,13,2,22,0.09
2013-7-14,81.6,65.7,54.4,56.0,52.1,49.0,92,64,36,29.91,29.73,20,3,27,0.03
2013-7-15,85.3,65.4,53.6,57.0,50.7,46.0,81,62,32,29.80,29.59,18,2,27,0.04
2013-7-16,87.4,68.0,51.5,55.0,50.2,46.0,83,57,26,29.80,29.65,12,2,21,0.04
2013-7-17,86.1,64.7,55.1,59.0,45.1,-99.9,76,56,31,29.85,29.69,21,-40,21,0.02
2013-7-18,83.8,65.0,52.8,55.0,50.6,46.0,91,63,32,29.92,29.73,21,3,30,0.01
2013-7-19,85.0,67.4,52.1,56.0,49.2,38.0,91,58,20,29.89,29.68,14,2,24,0.01
2013-7-20,84.6,66.0,51.9,52.0,44.2,35.0,77,50,18,29.76,29.57,8,1,12,0.00
2013-7-21,86.3,69.2,51.2,43.0,36.0,31.0,49,32,15,29.71,29.57,11,2,17,0.00
2013-7-22,89.0,71.7,56.9,45.0,35.6,26.0,47,29,12,29.74,29.59,13,2,16,0.00
2013-7-23,88.6,69.4,50.9,39.0,31.0,25.0,38,25,14,29.78,29.64,11,2,16,0.00
2013-7-24,77.2,68.2,59.4,47.0,40.5,28.0,51,37,22,29.76,29.66,23,4,36,0.00
2013-7-25,79.0,64.7,53.6,51.0,47.4,43.0,84,56,33,29.91,29.73,19,3,24,0.01
2013-7-26,84.5,66.6,48.3,50.0,43.4,37.0,83,49,23,30.00,29.80,13,2,16,0.01
2013-7-27,79.3,62.1,53.3,55.0,45.4,36.0,86,57,34,29.84,29.64,23,2,26,0.15
2013-7-28,67.8,56.9,51.2,59.0,52.2,48.0,97,85,56,29.81,29.72,12,1,16,0.12
2013-7-29,70.5,57.4,50.0,57.0,50.6,47.0,95,79,53,30.00,29.80,12,1,16,0.07
2013-7-30,78.1,61.1,45.4,50.0,45.6,41.0,87,60,33,30.12,30.00,16,2,22,0.02
2013-7-31,82.4,64.1,47.9,51.0,43.7,39.0,77,51,24,30.10,29.88,11,1,17,0.02
2013-8-1,66.2,56.4,50.8,53.0,46.8,38.0,93,72,49,29.92,29.87,22,3,29,0.03
2013-8-2,79.1,63.1,48.5,54.0,49.3,45.0,94,65,36,29.98,29.81,7,1,16,0.03
2013-8-3,80.7,65.4,52.3,52.0,47.0,44.0,75,54,30,29.91,29.77,14,2,19,0.00
2013-8-4,80.2,60.4,48.0,54.0,47.5,43.0,92,66,29,29.94,29.81,12,2,26,0.05
2013-8-5,75.2,59.0,46.9,55.0,48.4,45.0,92,71,38,29.97,29.85,10,1,19,0.05
2013-8-6,76.5,58.7,47.4,53.0,47.0,41.0,87,67,38,29.89,29.80,13,1,28,0.00
2013-8-7,70.2,57.7,49.0,48.0,44.7,42.0,80,64,40,29.90,29.81,14,2,23,0.00
2013-8-8,73.1,57.5,49.0,50.0,44.3,42.0,80,63,36,29.94,29.80,10,1,17,0.15
2013-8-9,71.3,57.5,45.1,48.0,42.6,38.0,82,60,35,30.05,29.92,9,1,15,0.15
2013-8-10,75.5,58.0,44.9,47.0,40.8,36.0,76,56,26,30.05,29.93,15,2,29,0.00
2013-8-11,78.2,60.0,43.1,46.0,40.8,37.0,84,53,27,30.08,29.91,15,2,19,0.00
2013-8-12,75.8,59.2,45.0,44.0,40.1,35.0,70,52,28,29.99,29.86,12,2,23,0.00
2013-8-13,74.8,57.2,42.6,51.0,42.2,38.0,84,61,29,30.03,29.93,10,2,21,0.03
2013-8-14,78.8,68.3,53.6,45.0,37.2,33.0,49,34,20,30.00,29.87,11,3,19,0.00
2013-8-15,83.4,62.7,45.1,42.0,35.3,32.0,64,40,18,29.99,29.85,15,2,21,0.00
2013-8-16,87.5,66.8,47.3,40.0,32.5,29.0,53,31,13,29.98,29.79,14,2,17,0.00
2013-8-17,86.6,67.6,51.3,43.0,35.7,28.0,47,33,16,29.92,29.71,16,2,20,0.00
2013-8-18,81.2,64.2,53.0,50.0,43.7,39.0,74,49,29,29.91,29.75,17,2,21,0.00
2013-8-19,88.5,66.9,47.2,50.0,43.1,33.0,82,49,15,29.98,29.74,13,2,16,0.00
2013-8-20,84.0,64.6,53.4,53.0,45.2,40.0,91,53,25,29.85,29.66,14,2,24,0.06
2013-8-21,84.1,64.7,47.4,54.0,47.4,42.0,91,59,24,29.93,29.81,9,1,17,0.07
2013-8-22,80.6,66.2,55.9,53.0,47.1,42.0,84,53,32,29.90,29.68,10,2,16,0.01
2013-8-23,79.5,61.5,50.3,55.0,49.9,46.0,89,69,31,29.84,29.66,19,3,32,0.01
2013-8-24,75.6,61.1,48.6,52.0,46.5,41.0,90,62,29,29.89,29.80,16,2,25,0.02
2013-8-25,72.0,60.2,54.0,58.0,49.9,44.0,94,70,45,29.96,29.87,9,1,24,0.08
2013-8-26,74.3,62.2,54.3,55.0,53.3,50.0,95,74,50,30.00,29.88,12,1,17,0.08
2013-8-27,82.3,64.7,50.6,55.0,50.9,47.0,88,65,31,29.96,29.74,15,2,23,0.13
2013-8-28,83.6,65.8,52.2,55.0,50.3,46.0,87,61,28,29.88,29.74,13,3,21,0.01
2013-8-29,86.8,67.3,50.3,52.0,47.9,44.0,83,54,23,29.95,29.80,15,2,19,0.01
2013-8-30,83.9,65.0,53.7,53.0,48.6,45.0,75,58,30,29.93,29.77,15,2,21,0.00
2013-8-31,81.9,64.0,52.4,53.0,49.9,47.0,84,63,31,29.89,29.73,23,3,31,0.00
2013-9-1,81.5,65.2,50.1,54.0,49.2,42.0,88,60,29,29.87,29.73,13,1,24,0.00
2013-9-2,83.6,66.9,52.8,52.0,47.4,44.0,76,52,30,29.88,29.70,14,3,20,0.00
2013-9-3,84.6,67.8,53.0,51.0,46.7,44.0,74,50,27,29.89,29.75,15,2,18,0.00
2013-9-4,86.8,68.7,58.0,51.0,47.5,44.0,63,49,27,29.91,29.76,15,2,20,0.00
2013-9-5,86.3,67.6,52.7,52.0,47.9,43.0,72,52,28,29.95,29.77,21,4,27,0.00
2013-9-6,80.3,60.6,55.1,52.0,46.2,-99.9,83,65,32,29.93,29.75,11,-22,19,0.04
2013-9-7,84.1,63.4,48.3,53.0,47.1,42.0,87,60,24,29.93,29.73,9,2,23,0.04
2013-9-8,83.2,63.4,49.9,52.0,47.8,44.0,81,60,27,29.84,29.59,16,3,22,0.01
2013-9-9,63.5,54.6,49.4,55.0,50.6,47.0,93,86,73,29.82,29.68,13,2,23,0.01
2013-9-10,63.2,55.5,50.0,57.0,52.0,49.0,96,88,75,29.90,29.82,9,2,15,0.03
2013-9-11,69.9,57.2,51.7,56.0,50.7,-99.9,93,82,59,29.93,29.85,16,-8,22,0.04
2013-9-12,77.1,56.7,47.0,56.0,50.6,45.0,94,82,44,30.00,29.85,9,2,21,0.25
2013-9-13,72.3,58.1,50.5,55.0,49.3,44.0,97,75,40,29.92,29.67,11,1,12,0.44
2013-9-14,66.9,54.6,48.2,53.0,47.3,44.0,95,78,52,29.83,29.70,9,1,16,0.06
2013-9-15,66.7,53.9,47.3,53.0,47.6,44.0,94,81,49,29.98,29.84,10,1,15,0.08
2013-9-16,70.2,55.4,44.1,53.0,46.8,43.0,95,76,46,30.04,29.89,12,1,16,0.09
2013-9-17,73.4,55.2,43.3,52.0,45.1,40.0,89,72,34,29.95,29.70,13,2,24,0.02
2013-9-18,69.2,53.6,46.0,50.0,45.8,43.0,90,76,44,29.81,29.65,22,4,33,0.27
2013-9-19,66.4,51.4,40.9,47.0,39.0,26.0,94,67,32,30.01,29.82,10,2,16,0.30
2013-9-20,71.3,51.0,34.2,37.0,31.7,28.0,78,51,27,30.09,29.92,10,1,15,0.00
2013-9-21,72.8,56.7,41.1,42.0,35.4,28.0,67,47,27,29.97,29.66,23,3,29,0.00
2013-9-22,61.1,49.1,38.3,50.0,42.6,37.0,95,80,53,29.70,29.45,24,3,33,0.54
2013-9-23,56.1,44.2,37.6,42.0,36.4,32.0,96,77,43,30.15,29.63,14,2,20,0.06
2013-9-24,67.5,47.9,31.2,39.0,30.0,21.0,90,57,21,30.22,29.88,18,2,21,0.07
2013-9-25,70.3,57.0,43.1,33.0,27.6,-99.9,52,35,21,29.87,29.36,33,-1,45,0.00
2013-9-26,69.8,59.6,49.2,34.0,28.3,24.0,47,31,21,29.45,29.32,30,11,32,0.00
2013-9-27,54.5,39.2,27.4,41.0,33.8,26.0,94,82,46,30.13,29.40,16,6,25,0.03
2013-9-28,55.0,37.1,23.7,36.0,29.1,22.0,93,76,42,30.39,30.13,8,1,12,0.08
2013-9-29,62.3,45.6,30.1,35.0,28.8,24.0,83,56,32,30.31,30.03,11,1,18,0.08
2013-9-30,70.7,52.4,35.3,36.0,29.8,24.0,66,44,27,30.06,29.79,12,2,16,0.00
2013-10-1,71.7,53.3,38.2,38.0,31.3,28.0,66,46,24,29.93,29.77,12,1,17,0.00
2013-10-2,69.3,53.5,37.3,35.0,28.6,24.0,63,40,21,29.88,29.70,17,4,25,0.00
2013-10-3,65.4,52.2,29.6,35.0,28.8,24.0,94,44,28,29.72,29.43,25,9,36,0.05
2013-10-4,31.7,27.5,22.6,30.0,25.2,19.0,95,91,79,30.45,29.66,19,4,23,0.20
2013-10-5,44.3,30.8,22.5,28.0,23.7,20.0,98,76,48,30.61,30.45,8,1,13,0.08
2013-10-6,50.8,36.3,22.8,31.0,24.8,19.0,86,66,47,30.60,30.47,5,1,7,0.00
2013-10-7,66.3,51.0,31.8,31.0,28.7,27.0,81,48,25,30.34,30.02,4,1,9,0.00
2013-10-8,64.8,48.3,39.2,32.0,27.3,23.0,60,46,29,29.91,29.65,16,2,22,0.00
2013-10-9,61.3,49.2,39.0,31.0,28.1,25.0,63,46,28,29.74,29.64,10,1,13,0.00
2013-10-10,48.9,39.8,31.7,38.0,33.1,25.0,94,78,40,29.75,29.51,11,2,23,0.21
2013-10-11,43.3,36.4,33.1,37.0,33.6,31.0,99,89,76,30.14,29.76,11,2,17,0.01
2013-10-12,52.4,38.7,27.6,33.0,28.3,25.0,91,69,39,30.23,30.06,17,2,17,0.01
2013-10-13,61.4,43.9,31.6,38.0,31.0,25.0,87,64,35,30.13,29.81,15,2,21,0.02
2013-10-14,40.8,34.6,31.5,38.0,32.7,30.0,95,92,86,30.20,29.81,13,2,17,0.11
2013-10-15,42.3,25.4,31.1,32.0,-6.6,-99.9,94,59,61,30.20,30.11,10,-268,14,0.11
2013-10-16,43.3,32.3,26.1,28.0,23.7,20.0,91,73,40,30.26,30.14,13,2,17,0.00
2013-10-17,48.0,29.3,23.7,29.0,-2.0,-99.9,85,47,37,30.26,30.03,13,-200,22,0.00
2013-10-18,41.5,31.8,25.3,29.0,22.3,14.0,94,71,39,30.34,30.04,15,2,19,0.02
2013-10-19,51.4,34.0,20.6,24.0,18.3,-99.9,77,57,32,30.39,30.15,9,-9,16,0.00
2013-10-20,50.8,28.4,30.1,27.0,-15.1,-99.9,68,35,39,30.20,29.92,12,-313,23,0.00
2013-10-21,51.8,31.0,32.5,30.0,-3.5,-99.9,83,44,37,30.26,30.03,11,-230,22,0.00
2013-10-22,57.8,34.0,25.9,30.0,-1.2,-99.9,79,42,34,30.31,30.14,9,-217,13,0.00
2013-10-23,62.9,33.5,32.9,31.0,-13.1,-99.9,71,32,25,30.20,30.02,10,-315,12,0.00
2013-10-24,56.0,34.9,50.1,30.0,-14.8,-99.9,44,26,28,30.09,29.99,1,-333,5,0.00
2013-10-25,46.8,15.1,44.7,27.0,-57.8,-99.9,51,16,46,30.13,30.07,0,-666,5,0.00
2013-10-26,60.0,60.0,60.0,25.0,25.0,25.0,26,26,26,30.08,30.08,0,0,11,0.00
2013-10-27,53.0,42.9,32.1,27.0,25.0,22.0,66,51,37,30.10,29.84,1,0,3,0.00
2013-10-28,58.2,51.1,37.5,26.0,23.3,22.0,60,37,25,29.82,29.65,18,9,30,0.00
2013-10-29,44.9,40.3,31.9,31.0,23.0,19.0,95,56,35,29.78,29.68,19,12,31,0.03
2013-10-30,31.8,27.8,26.3,29.0,26.0,25.0,94,93,89,30.08,29.89,6,1,12,0.13
2013-10-31,31.4,28.4,26.3,28.0,26.1,25.0,95,91,83,30.25,30.08,5,0,9,0.02
2013-11-1,39.7,31.7,24.8,32.0,27.3,21.0,95,84,60,30.44,30.22,8,2,16,0.02
2013-11-2,53.7,33.7,19.9,29.0,21.2,16.0,87,64,28,30.45,30.01,5,0,9,0.02
2013-11-3,52.0,39.5,21.8,30.0,21.8,14.0,93,53,35,30.01,29.59,25,9,34,0.00
2013-11-4,36.7,26.6,15.9,28.0,21.5,13.0,90,81,65,30.04,29.88,11,1,20,0.02
2013-11-5,29.4,20.9,11.9,23.0,13.6,5.0,92,75,43,30.55,30.05,11,5,17,0.01
2013-11-6,36.3,21.3,8.5,19.0,11.3,3.0,80,66,48,30.78,30.55,5,1,6,0.01
2013-11-7,50.1,31.9,17.4,26.0,20.1,13.0,83,64,38,30.77,30.26,6,0,7,0.00
2013-11-8,51.6,39.8,31.3,25.0,21.5,19.0,70,50,34,30.26,29.99,15,3,19,0.00
2013-11-9,54.5,38.7,28.0,26.0,21.6,18.0,68,52,31,30.29,30.14,9,1,14,0.00
2013-11-10,56.4,39.3,27.8,26.0,21.5,18.0,68,51,29,30.36,30.22,11,1,16,0.00
2013-11-11,55.7,38.8,26.2,26.0,21.3,18.0,71,52,29,30.48,30.33,9,1,11,0.00
2013-11-12,56.8,39.0,27.6,26.0,19.2,12.0,67,47,25,30.59,30.42,5,1,9,0.00
2013-11-13,52.2,37.9,26.3,23.0,18.4,12.0,60,47,29,30.48,30.14,9,1,14,0.00
2013-11-14,47.8,37.2,28.8,28.0,22.4,17.0,76,57,31,30.14,29.82,5,0,11,0.00
2013-11-15,47.6,36.3,27.9,29.0,21.6,13.0,94,59,35,29.82,29.52,26,6,36,0.00
2013-11-16,34.9,29.5,26.1,29.0,25.4,23.0,95,85,70,29.74,29.54,15,4,29,0.01
2013-11-17,32.9,29.9,26.3,26.0,23.7,21.0,86,78,70,30.30,29.76,12,4,18,0.04
2013-11-18,42.9,33.3,26.6,27.0,23.2,20.0,86,67,50,30.44,30.26,5,1,6,0.04
2013-11-19,37.1,33.2,22.2,32.0,29.7,16.0,94,86,76,30.16,29.96,4,0,5,0.03
2013-11-20,41.5,38.1,31.1,36.0,31.7,30.0,95,78,69,29.98,29.84,0,0,0,0.02
2013-11-21,36.5,28.8,0.1,35.0,23.1,-99.9,96,90,90,30.32,0.00,10,-66,15,0.23
2013-11-22,28.1,24.1,20.3,24.0,20.5,17.0,92,86,76,30.50,30.32,24,8,27,0.00
2013-11-23,34.7,29.2,24.7,28.0,25.2,23.0,94,85,72,30.52,30.25,19,5,22,0.06
2013-11-24,31.3,29.1,26.3,30.0,27.1,24.0,95,92,85,30.25,30.08,9,2,13,0.02
2013-11-25,36.6,27.6,20.5,28.0,23.1,17.0,93,84,64,30.47,30.15,7,1,10,0.03
2013-11-26,39.2,26.0,17.1,27.0,19.7,14.0,89,78,56,30.61,30.48,5,1,6,0.01
2013-11-27,41.1,26.4,15.4,24.0,18.7,12.0,86,74,47,30.55,30.32,4,0,5,0.00
2013-11-28,43.4,29.4,19.9,26.0,20.3,15.0,83,70,45,30.38,30.24,6,1,9,0.00
2013-11-29,43.3,29.4,19.7,26.0,20.3,16.0,84,70,48,30.45,30.33,6,0,12,0.00
2013-11-30,40.6,26.3,15.8,25.0,19.3,12.0,87,76,53,30.52,30.38,7,0,11,0.00
2013-12-1,30.8,22.6,16.2,25.0,19.8,13.0,92,88,77,30.54,30.39,4,0,11,0.00
2013-12-2,33.5,27.2,22.6,26.0,22.9,20.0,94,84,71,30.43,29.88,8,0,11,0.00
2013-12-3,37.9,31.2,21.9,28.0,23.5,20.0,94,75,53,29.87,29.37,32,7,32,0.00
2013-12-4,26.0,8.6,-5.4,25.0,5.8,-9.0,94,88,83,30.29,29.32,11,4,18,0.00
2013-12-5,9.9,-1.0,-12.0,6.0,-4.8,-16.0,87,84,81,30.46,30.30,4,1,5,0.01
2013-12-6,10.3,2.7,-3.7,7.0,-0.9,-7.0,86,84,82,30.56,30.45,6,0,8,0.00
2013-12-7,17.6,11.6,3.9,14.0,8.6,0.0,90,87,83,30.55,29.94,3,0,9,0.00
2013-12-8,14.9,9.7,2.8,13.0,6.3,-2.0,91,86,80,30.33,29.88,11,3,15,0.00
2013-12-9,9.7,1.9,-7.9,2.0,-4.1,-13.0,86,77,61,30.94,30.33,11,2,12,0.00
2013-12-10,18.6,5.4,-7.7,9.0,-1.6,-13.0,80,73,62,30.97,30.77,4,0,6,0.00
2013-12-11,29.7,14.8,5.4,18.0,7.9,1.0,84,75,59,30.87,30.77,2,0,3,0.03
2013-12-12,33.3,18.4,6.4,20.0,11.1,2.0,84,74,57,30.87,30.43,5,0,5,0.07
2013-12-13,30.1,19.9,9.8,18.0,12.5,6.0,87,74,57,30.48,30.24,4,0,9,0.01
2013-12-14,31.2,19.2,10.9,17.0,12.8,8.0,88,77,56,30.72,30.48,2,0,5,0.00
2013-12-15,37.0,24.4,15.6,22.0,16.0,11.0,83,71,53,30.75,30.61,3,0,6,0.00
2013-12-16,42.1,27.1,18.1,25.0,17.7,13.0,82,69,47,30.66,30.55,4,1,6,0.00
2013-12-17,43.2,27.9,17.4,23.0,16.9,11.0,79,65,44,30.69,30.45,5,0,5,0.00
2013-12-18,41.6,29.5,20.2,21.0,16.9,13.0,75,61,43,30.44,29.92,8,0,9,0.00
2013-12-19,41.5,33.0,24.1,27.0,22.2,17.0,88,66,47,29.95,29.66,16,2,21,0.00
2013-12-20,30.3,25.2,18.8,27.0,23.4,17.0,94,92,80,29.83,29.70,13,2,16,0.04
2013-12-21,23.2,18.3,10.6,20.0,15.6,7.0,92,89,84,30.16,29.76,8,1,11,0.00
2013-12-22,24.5,17.8,12.1,18.0,13.7,9.0,90,84,69,30.54,30.17,9,1,13,0.01
2013-12-23,29.9,22.5,17.5,22.0,18.4,15.0,89,84,71,30.69,30.52,6,0,8,0.00
2013-12-24,27.7,21.7,9.1,23.0,17.2,4.0,92,83,74,30.65,30.36,16,2,20,0.00
2013-12-25,28.6,14.8,3.5,14.0,7.0,-1.0,86,72,54,30.86,30.65,4,0,6,0.00
2013-12-26,29.7,20.8,8.5,15.0,10.8,4.0,81,66,54,30.82,30.69,5,1,6,0.02
2013-12-27,36.5,21.8,13.7,21.0,13.2,8.0,81,70,51,30.75,30.46,4,2,6,0.01
2013-12-28,33.6,25.0,16.8,21.0,16.7,12.0,86,72,56,30.45,30.13,4,0,9,0.00
2013-12-29,28.8,21.6,13.9,18.0,13.6,7.0,85,72,55,30.42,30.20,10,1,13,0.00
2013-12-30,36.6,22.9,15.3,18.0,12.5,8.0,79,66,46,30.61,30.41,2,0,5,0.00
2013-12-31,29.4,23.2,16.6,23.0,17.9,10.0,92,80,71,30.52,30.32,4,0,9,0.02
2014-1-1,32.9,24.1,15.3,23.0,17.1,8.0,93,76,48,30.55,30.26,14,4,22,0.06
2014-1-2,37.5,21.1,9.4,17.0,9.1,4.0,81,62,40,30.66,30.48,5,0,6,0.01